Flag for Russia Weather past 2 weeks in Volgograd, Russia

Now
16 °F

Light snow. Mostly cloudy.


Feels Like: 2 °F
Forecast: 18 / 21 °F
Wind: 13 mph from Southeast

Location: Volgograd Airport

Current Time: Jan 27, 2015 at 6:02:15 PM

Latest Report: Jan 27, 2015 at 5:30 PM


Visibility: N/A

Pressure: 30.30 "Hg

Humidity: 93%

Dew point: 14 °F

Location of VolgogradLocation

Historic Weather in Volgograd — Graph

°F

Volgograd temperature yesterday

Maximum temperature yesterday: 14 °F (at 2:30 PM)
Minimum temperature yesterday: 5 °F (at 2:00 AM)
Average temperature yesterday: 10 °F

Past Weeks' High & Low Weather Summary

 TemperatureHumidityPressure
High37 °F (Jan 15, 2:30 PM)100% (Jan 12, 5:00 PM)30.69 "Hg (Jan 12, 5:00 PM)
Low-6 °F (Jan 24, 7:30 AM)67% (Jan 25, 4:00 PM)29.65 "Hg (Jan 12, 5:00 PM)
Average20 °F89%30.31 "Hg
* Reported Jan 12 5:00 PM — Jan 27 5:00 PM, Volgograd, Weather by CustomWeather, © 2014

Note: Actual official high and low records may vary slightly from our data, if they occured in-between our weather recording intervals... More about our weather records

Advertising

Volgograd weather history for previous 24 hours

 ConditionsComfort  
Time TempWeatherWind HumidityBarometerVisibility
5:00 PM
Jan 27
16 °FMostly cloudy.13 mph86%30.30 "HgN/A
4:30 PM16 °FMostly cloudy.13 mph86%30.30 "HgN/A
4:00 PM16 °FMostly cloudy.13 mph86%30.30 "HgN/A
3:30 PM16 °FMostly cloudy.13 mph86%30.30 "HgN/A
3:00 PM16 °FOvercast.13 mph86%30.27 "HgN/A
2:30 PM16 °FOvercast.13 mph79%30.30 "HgN/A
2:00 PM14 °FOvercast.13 mph85%30.30 "HgN/A
1:30 PM14 °FOvercast.13 mph85%30.30 "HgN/A
1:00 PM14 °FMostly cloudy.10 mph85%30.30 "HgN/A
12:30 PM14 °FMostly cloudy.10 mph85%30.30 "HgN/A
12:00 PM12 °FMostly cloudy.10 mph85%30.30 "HgN/A
11:30 AM12 °FMostly cloudy.13 mph85%30.30 "HgN/A
11:00 AM12 °FMostly cloudy.13 mph85%30.33 "HgN/A
10:30 AM10 °FMostly cloudy.15 mph85%30.33 "HgN/A
10:00 AM10 °FSnow flurries. Mostly cloudy.15 mph85%30.33 "HgN/A
9:30 AM10 °FSnow flurries. Mostly cloudy.13 mph85%30.33 "HgN/A
9:00 AM10 °FLight snow. Mostly cloudy.13 mph85%30.33 "Hg2 mi
8:30 AM10 °FLight snow. Mostly cloudy.10 mph85%30.33 "Hg2 mi
8:00 AM10 °FMostly cloudy.10 mph85%30.33 "HgN/A
7:30 AM10 °FLight snow. Mostly cloudy.13 mph85%30.33 "Hg2 mi
6:30 AM10 °FLight snow. Mostly cloudy.13 mph85%30.33 "Hg2 mi
6:00 AM10 °FLight snow. Mostly cloudy.13 mph85%30.30 "Hg2 mi
5:30 AM10 °FLight snow. Mostly cloudy.13 mph85%30.33 "Hg2 mi
5:00 AM10 °FLight snow. Mostly cloudy.13 mph92%30.30 "Hg2 mi
4:30 AM12 °FSnow flurries. Overcast.15 mph85%30.33 "Hg2 mi
4:00 AM12 °FSnow showers. Passing clouds.13 mph79%30.33 "Hg1 mi
3:30 AM12 °FSnow showers. Passing clouds.13 mph79%30.33 "Hg1 mi
3:00 AM12 °FSnow showers. Passing clouds.17 mph85%30.33 "Hg1 mi
2:30 AM12 °FSnow flurries. Passing clouds.17 mph85%30.33 "Hg2 mi
2:00 AM12 °FSnow flurries. Passing clouds.17 mph85%30.33 "Hg2 mi
1:30 AM12 °FSnow showers. Passing clouds.20 mph85%30.33 "Hg1 mi
1:00 AM12 °FSnow showers. Passing clouds.20 mph85%30.33 "Hg1 mi
12:30 AM12 °FSnow showers. Passing clouds.20 mph85%30.33 "Hg1 mi
12:00 AM12 °FSnow showers. Passing clouds.17 mph85%30.33 "Hg1 mi
11:30 PM
Jan 26
12 °FSnow showers. Passing clouds.17 mph85%30.33 "Hg1 mi
11:00 PM12 °FSnow showers. Passing clouds.17 mph85%30.36 "Hg1 mi
10:30 PM12 °FSnow. Mostly cloudy.17 mph85%30.36 "Hg1 mi
10:00 PM14 °FLight snow. Mostly cloudy.15 mph73%30.36 "HgN/A
9:30 PM14 °FOvercast.17 mph73%30.36 "HgN/A
9:00 PM14 °FOvercast.17 mph73%30.36 "HgN/A
8:30 PM14 °FOvercast.15 mph73%30.36 "HgN/A
8:00 PM14 °FOvercast.17 mph73%30.36 "HgN/A
7:30 PM14 °FOvercast.17 mph73%30.39 "HgN/A
7:00 PM14 °FPassing clouds.17 mph73%30.39 "HgN/A
6:30 PM14 °FPassing clouds.20 mph73%30.39 "HgN/A
6:00 PM14 °FOvercast.20 mph73%30.39 "HgN/A
Weather by CustomWeather, © 2014

See weather overviewHow to use our weather pages